Time,TemperatureF,DewpointF,PressureIn,WindDirection,WindDirectionDegrees,WindSpeedMPH,WindSpeedGustMPH,Humidity,HourlyPrecipIn,Conditions,Clouds,dailyrainin,SoftwareType,DateUTC
2013-03-09 00:02:00,38.0,22.0,30.14,NNW,340,6.0,11.0,53,0.00,,,0.08,,2013-03-09 05:02:00,
2013-03-09 00:12:00,38.0,22.0,30.14,NNW,340,6.0,11.0,53,0.00,,,0.08,,2013-03-09 05:12:00,
2013-03-09 00:22:00,38.0,22.0,30.14,NNE,23,5.0,9.0,53,0.00,,,0.08,,2013-03-09 05:22:00,
2013-03-09 00:32:00,38.0,23.0,30.14,North,356,5.0,11.0,54,0.00,,,0.08,,2013-03-09 05:32:00,
2013-03-09 00:43:00,38.0,23.0,30.14,North,356,5.0,11.0,54,0.00,,,0.08,,2013-03-09 05:43:00,
2013-03-09 00:53:00,38.0,23.0,30.15,North,9,5.0,8.0,55,0.00,,,0.08,,2013-03-09 05:53:00,
2013-03-09 01:02:00,37.0,22.0,30.15,NNW,342,6.0,8.0,55,0.00,,,0.08,,2013-03-09 06:02:00,
2013-03-09 01:11:00,37.0,22.0,30.15,North,1,4.0,8.0,55,0.00,,,0.08,,2013-03-09 06:11:00,
2013-03-09 01:22:00,37.0,22.0,30.15,North,1,4.0,8.0,55,0.00,,,0.08,,2013-03-09 06:22:00,
2013-03-09 01:32:00,37.0,23.0,30.15,NNW,345,5.0,10.0,56,0.00,,,0.08,,2013-03-09 06:32:00,
2013-03-09 01:42:00,37.0,23.0,30.15,NNW,345,5.0,10.0,56,0.00,,,0.08,,2013-03-09 06:42:00,
2013-03-09 01:52:00,37.0,23.0,30.15,NW,314,4.0,10.0,57,0.00,,,0.08,,2013-03-09 06:52:00,
2013-03-09 02:01:00,37.0,23.0,30.15,NNW,340,5.0,8.0,56,0.00,,,0.08,,2013-03-09 07:01:00,
2013-03-09 02:11:00,37.0,23.0,30.15,NNW,340,5.0,8.0,56,0.00,,,0.08,,2013-03-09 07:11:00,
2013-03-09 02:21:00,36.0,22.0,30.15,NNW,343,6.0,8.0,57,0.00,,,0.08,,2013-03-09 07:21:00,
2013-03-09 02:32:00,36.0,23.0,30.15,NNE,14,4.0,8.0,58,0.00,,,0.08,,2013-03-09 07:32:00,
2013-03-09 02:42:00,36.0,23.0,30.15,NNE,14,4.0,8.0,58,0.00,,,0.08,,2013-03-09 07:42:00,
2013-03-09 02:52:00,36.0,23.0,30.15,North,356,6.0,9.0,58,0.00,,,0.08,,2013-03-09 07:52:00,
2013-03-09 03:01:00,36.0,23.0,30.15,North,354,4.0,8.0,59,0.00,,,0.08,,2013-03-09 08:01:00,
2013-03-09 03:11:00,36.0,23.0,30.15,North,354,4.0,8.0,59,0.00,,,0.08,,2013-03-09 08:11:00,
2013-03-09 03:22:00,35.0,23.0,30.15,NNE,13,5.0,7.0,60,0.00,,,0.08,,2013-03-09 08:22:00,
2013-03-09 03:32:00,35.0,23.0,30.16,North,359,6.0,9.0,60,0.00,,,0.08,,2013-03-09 08:32:00,
2013-03-09 03:42:00,35.0,23.0,30.16,North,359,6.0,9.0,60,0.00,,,0.08,,2013-03-09 08:42:00,
2013-03-09 03:52:00,34.0,22.0,30.15,NNE,13,4.0,6.0,61,0.00,,,0.08,,2013-03-09 08:52:00,
2013-03-09 04:02:00,34.0,22.0,30.15,NNW,334,4.0,10.0,61,0.00,,,0.08,,2013-03-09 09:02:00,
2013-03-09 04:12:00,34.0,22.0,30.15,NNW,334,4.0,10.0,61,0.00,,,0.08,,2013-03-09 09:12:00,
2013-03-09 04:21:00,34.0,22.0,30.16,NNE,31,4.0,9.0,62,0.00,,,0.08,,2013-03-09 09:21:00,
2013-03-09 04:32:00,34.0,23.0,30.16,North,4,5.0,11.0,64,0.00,,,0.08,,2013-03-09 09:32:00,
2013-03-09 04:42:00,34.0,23.0,30.16,North,4,5.0,11.0,64,0.00,,,0.08,,2013-03-09 09:42:00,
2013-03-09 04:52:00,33.0,23.0,30.17,NNW,345,5.0,8.0,66,0.00,,,0.08,,2013-03-09 09:52:00,
2013-03-09 05:01:00,33.0,23.0,30.17,NNE,13,5.0,9.0,65,0.00,,,0.08,,2013-03-09 10:01:00,
2013-03-09 05:11:00,33.0,23.0,30.17,NNE,13,5.0,9.0,65,0.00,,,0.08,,2013-03-09 10:11:00,
2013-03-09 05:22:00,33.0,22.0,30.18,NNW,336,6.0,10.0,64,0.00,,,0.08,,2013-03-09 10:22:00,
2013-03-09 05:32:00,33.0,22.0,30.19,North,349,6.0,10.0,64,0.00,,,0.08,,2013-03-09 10:32:00,
2013-03-09 05:42:00,33.0,22.0,30.19,North,349,6.0,10.0,64,0.00,,,0.08,,2013-03-09 10:42:00,
2013-03-09 05:52:00,32.0,22.0,30.19,NNW,345,4.0,6.0,65,0.00,,,0.08,,2013-03-09 10:52:00,
2013-03-09 06:01:00,32.0,22.0,30.20,NNW,341,4.0,9.0,66,0.00,,,0.08,,2013-03-09 11:01:00,
2013-03-09 06:11:00,32.0,22.0,30.20,NNW,341,4.0,9.0,66,0.00,,,0.08,,2013-03-09 11:11:00,
2013-03-09 06:21:00,32.0,22.0,30.20,NNE,18,5.0,7.0,67,0.00,,,0.08,,2013-03-09 11:21:00,
2013-03-09 06:32:00,32.0,22.0,30.21,North,8,5.0,9.0,66,0.00,,,0.08,,2013-03-09 11:32:00,
2013-03-09 06:42:00,32.0,22.0,30.21,North,8,5.0,9.0,66,0.00,,,0.08,,2013-03-09 11:42:00,
2013-03-09 06:52:00,32.0,22.0,30.21,NNE,13,4.0,7.0,67,0.00,,,0.08,,2013-03-09 11:52:00,
2013-03-09 07:02:00,32.0,22.0,30.22,NNW,345,5.0,9.0,67,0.00,,,0.08,,2013-03-09 12:02:00,
2013-03-09 07:11:00,32.0,22.0,30.22,NNW,345,5.0,9.0,67,0.00,,,0.08,,2013-03-09 12:11:00,
2013-03-09 07:22:00,33.0,23.0,30.22,NNW,343,6.0,10.0,65,0.00,,,0.08,,2013-03-09 12:22:00,
2013-03-09 07:32:00,33.0,23.0,30.23,WNW,287,6.0,11.0,66,0.00,,,0.08,,2013-03-09 12:32:00,
2013-03-09 07:42:00,33.0,23.0,30.23,WNW,287,6.0,11.0,66,0.00,,,0.08,,2013-03-09 12:42:00,
2013-03-09 07:52:00,34.0,25.0,30.23,NE,36,6.0,12.0,69,0.00,,,0.08,,2013-03-09 12:52:00,
2013-03-09 08:02:00,35.0,26.0,30.24,NNW,336,5.0,12.0,68,0.00,,,0.08,,2013-03-09 13:02:00,
2013-03-09 08:11:00,35.0,26.0,30.24,NNW,336,5.0,12.0,68,0.00,,,0.08,,2013-03-09 13:11:00,
2013-03-09 08:22:00,36.0,26.0,30.24,NW,308,4.0,11.0,68,0.00,,,0.08,,2013-03-09 13:22:00,
2013-03-09 08:32:00,36.0,26.0,30.24,North,356,10.0,16.0,66,0.00,,,0.08,,2013-03-09 13:32:00,
2013-03-09 08:42:00,36.0,26.0,30.24,North,356,10.0,16.0,66,0.00,,,0.08,,2013-03-09 13:42:00,
2013-03-09 08:52:00,36.0,26.0,30.24,ENE,57,6.0,18.0,66,0.00,,,0.08,,2013-03-09 13:52:00,
2013-03-09 09:01:00,36.0,26.0,30.24,ENE,59,5.0,11.0,67,0.00,,,0.08,,2013-03-09 14:01:00,
2013-03-09 09:11:00,36.0,26.0,30.24,ENE,59,5.0,11.0,67,0.00,,,0.08,,2013-03-09 14:11:00,
2013-03-09 09:22:00,36.0,26.0,30.24,NNE,13,9.0,15.0,66,0.00,,,0.08,,2013-03-09 14:22:00,
2013-03-09 09:32:00,37.0,27.0,30.25,NE,34,5.0,15.0,68,0.00,,,0.08,,2013-03-09 14:32:00,
2013-03-09 09:42:00,37.0,27.0,30.25,NE,34,5.0,15.0,68,0.00,,,0.08,,2013-03-09 14:42:00,
2013-03-09 09:52:00,37.0,28.0,30.25,NNE,25,4.0,14.0,69,0.00,,,0.08,,2013-03-09 14:52:00,
2013-03-09 10:02:00,37.0,28.0,30.25,NNE,12,4.0,13.0,69,0.00,,,0.08,,2013-03-09 15:02:00,
2013-03-09 10:12:00,37.0,28.0,30.25,NNE,12,4.0,13.0,69,0.00,,,0.08,,2013-03-09 15:12:00,
2013-03-09 10:22:00,37.0,28.0,30.25,NNE,25,4.0,14.0,70,0.00,,,0.08,,2013-03-09 15:22:00,
2013-03-09 10:32:00,37.0,28.0,30.25,ENE,70,5.0,8.0,71,0.00,,,0.08,,2013-03-09 15:32:00,
2013-03-09 10:42:00,37.0,28.0,30.25,ENE,70,5.0,8.0,71,0.00,,,0.08,,2013-03-09 15:42:00,
2013-03-09 10:52:00,38.0,29.0,30.25,NNE,22,5.0,10.0,70,0.00,,,0.08,,2013-03-09 15:52:00,
2013-03-09 11:01:00,37.0,28.0,30.25,NNE,32,5.0,13.0,69,0.00,,,0.08,,2013-03-09 16:01:00,
2013-03-09 11:11:00,37.0,28.0,30.25,NNE,32,5.0,13.0,69,0.00,,,0.08,,2013-03-09 16:11:00,
2013-03-09 11:21:00,38.0,29.0,30.26,North,9,3.0,12.0,69,0.00,,,0.08,,2013-03-09 16:21:00,
2013-03-09 11:32:00,38.0,29.0,30.26,NNW,333,5.0,11.0,69,0.00,,,0.08,,2013-03-09 16:32:00,
2013-03-09 11:42:00,38.0,29.0,30.26,NNW,333,5.0,11.0,69,0.00,,,0.08,,2013-03-09 16:42:00,
2013-03-09 11:52:00,38.0,28.0,30.26,NNE,13,5.0,11.0,68,0.00,,,0.08,,2013-03-09 16:52:00,
2013-03-09 12:01:00,39.0,29.0,30.26,NNE,22,4.0,8.0,68,0.00,,,0.08,,2013-03-09 17:01:00,
2013-03-09 12:11:00,39.0,29.0,30.26,NNE,22,4.0,8.0,68,0.00,,,0.08,,2013-03-09 17:11:00,
2013-03-09 12:22:00,39.0,29.0,30.26,NNW,341,4.0,8.0,68,0.00,,,0.08,,2013-03-09 17:22:00,
2013-03-09 12:32:00,39.0,29.0,30.27,NNE,25,4.0,9.0,68,0.00,,,0.08,,2013-03-09 17:32:00,
2013-03-09 12:42:00,39.0,29.0,30.27,NNE,25,4.0,9.0,68,0.00,,,0.08,,2013-03-09 17:42:00,
2013-03-09 12:52:00,39.0,29.0,30.26,NNE,21,4.0,9.0,68,0.00,,,0.08,,2013-03-09 17:52:00,
2013-03-09 13:02:00,40.0,30.0,30.26,NNW,343,3.0,6.0,68,0.00,,,0.08,,2013-03-09 18:02:00,
2013-03-09 13:11:00,40.0,30.0,30.26,NNW,343,3.0,6.0,68,0.00,,,0.08,,2013-03-09 18:11:00,
2013-03-09 13:21:00,40.0,30.0,30.26,NW,319,3.0,6.0,67,0.00,,,0.08,,2013-03-09 18:21:00,
2013-03-09 13:32:00,39.0,29.0,30.26,NNW,338,2.0,9.0,68,0.00,,,0.08,,2013-03-09 18:32:00,
2013-03-09 13:42:00,39.0,29.0,30.26,NNW,338,2.0,9.0,68,0.00,,,0.08,,2013-03-09 18:42:00,
2013-03-09 13:52:00,40.0,30.0,30.25,ENE,60,3.0,5.0,68,0.00,,,0.08,,2013-03-09 18:52:00,
2013-03-09 14:01:00,40.0,30.0,30.25,North,351,2.0,4.0,68,0.00,,,0.08,,2013-03-09 19:01:00,
2013-03-09 14:12:00,40.0,30.0,30.25,North,351,2.0,4.0,68,0.00,,,0.08,,2013-03-09 19:12:00,
2013-03-09 14:22:00,39.0,30.0,30.25,ENE,75,3.0,8.0,69,0.00,,,0.08,,2013-03-09 19:22:00,
2013-03-09 14:32:00,40.0,31.0,30.25,East,82,1.0,5.0,71,0.00,,,0.08,,2013-03-09 19:32:00,
2013-03-09 14:42:00,40.0,31.0,30.25,East,82,1.0,5.0,71,0.00,,,0.08,,2013-03-09 19:42:00,
2013-03-09 14:52:00,40.0,30.0,30.25,North,6,3.0,5.0,68,0.00,,,0.08,,2013-03-09 19:52:00,
2013-03-09 15:01:00,40.0,31.0,30.25,NNE,27,3.0,4.0,70,0.00,,,0.08,,2013-03-09 20:01:00,
2013-03-09 15:11:00,40.0,31.0,30.25,NNE,27,3.0,4.0,70,0.00,,,0.08,,2013-03-09 20:11:00,
2013-03-09 15:22:00,40.0,31.0,30.26,NNE,23,2.0,5.0,71,0.00,,,0.08,,2013-03-09 20:22:00,
2013-03-09 15:32:00,40.0,31.0,30.26,NE,53,3.0,7.0,70,0.00,,,0.08,,2013-03-09 20:32:00,
2013-03-09 15:42:00,40.0,31.0,30.26,NE,53,3.0,7.0,70,0.00,,,0.08,,2013-03-09 20:42:00,
2013-03-09 15:52:00,40.0,31.0,30.26,SE,139,1.0,3.0,70,0.00,,,0.08,,2013-03-09 20:52:00,
2013-03-09 16:02:00,40.0,31.0,30.26,NE,44,2.0,4.0,71,0.00,,,0.08,,2013-03-09 21:02:00,
2013-03-09 16:12:00,40.0,31.0,30.26,NE,44,2.0,4.0,71,0.00,,,0.08,,2013-03-09 21:12:00,
2013-03-09 16:22:00,40.0,32.0,30.26,East,85,1.0,4.0,72,0.00,,,0.08,,2013-03-09 21:22:00,
2013-03-09 16:32:00,40.0,32.0,30.27,NNW,330,2.0,3.0,72,0.00,,,0.03,,2013-03-09 21:32:00,
2013-03-09 16:42:00,40.0,32.0,30.27,NNW,330,2.0,3.0,72,0.00,,,0.03,,2013-03-09 21:42:00,
2013-03-09 16:52:00,40.0,32.0,30.27,NNE,22,1.0,3.0,72,0.00,,,0.03,,2013-03-09 21:52:00,
2013-03-09 17:01:00,39.0,31.0,30.27,ENE,65,1.0,2.0,73,0.00,,,0.03,,2013-03-09 22:01:00,
2013-03-09 17:11:00,39.0,31.0,30.27,ENE,65,1.0,2.0,73,0.00,,,0.03,,2013-03-09 22:11:00,
2013-03-09 17:21:00,39.0,31.0,30.28,East,81,1.0,4.0,74,0.00,,,0.03,,2013-03-09 22:21:00,
2013-03-09 17:32:00,38.0,31.0,30.28,WSW,246,0.0,2.0,76,0.00,,,0.00,,2013-03-09 22:32:00,
2013-03-09 17:42:00,38.0,31.0,30.28,WSW,246,0.0,2.0,76,0.00,,,0.00,,2013-03-09 22:42:00,
2013-03-09 17:52:00,37.0,30.0,30.29,East,98,0.0,1.0,77,0.00,,,0.00,,2013-03-09 22:52:00,
2013-03-09 18:01:00,36.0,30.0,30.29,East,98,0.0,0.0,79,0.00,,,0.00,,2013-03-09 23:01:00,
2013-03-09 18:11:00,36.0,30.0,30.29,East,98,0.0,0.0,79,0.00,,,0.00,,2013-03-09 23:11:00,
2013-03-09 18:22:00,35.0,30.0,30.30,East,98,0.0,0.0,82,0.00,,,0.00,,2013-03-09 23:22:00,
2013-03-09 18:32:00,34.0,30.0,30.31,East,97,0.0,1.0,84,0.00,,,0.00,,2013-03-09 23:32:00,
2013-03-09 18:42:00,34.0,30.0,30.31,East,97,0.0,1.0,84,0.00,,,0.00,,2013-03-09 23:42:00,
2013-03-09 18:52:00,33.0,29.0,30.31,WSW,248,0.0,0.0,85,0.00,,,0.00,,2013-03-09 23:52:00,
2013-03-09 19:02:00,32.0,28.0,30.31,WSW,248,0.0,0.0,86,0.00,,,0.00,,2013-03-10 00:02:00,
2013-03-09 19:11:00,32.0,28.0,30.31,WSW,248,0.0,0.0,86,0.00,,,0.00,,2013-03-10 00:11:00,
2013-03-09 19:22:00,31.0,28.0,30.32,WSW,248,0.0,0.0,87,0.00,,,0.00,,2013-03-10 00:22:00,
2013-03-09 19:32:00,31.0,28.0,30.32,WSW,246,0.0,0.0,88,0.00,,,0.00,,2013-03-10 00:32:00,
2013-03-09 19:42:00,31.0,28.0,30.32,WSW,246,0.0,0.0,88,0.00,,,0.00,,2013-03-10 00:42:00,
2013-03-09 19:52:00,31.0,28.0,30.32,WSW,246,0.0,0.0,90,0.00,,,0.00,,2013-03-10 00:52:00,
2013-03-09 20:01:00,30.0,28.0,30.32,WSW,246,0.0,0.0,91,0.00,,,0.00,,2013-03-10 01:01:00,
2013-03-09 20:11:00,30.0,28.0,30.32,WSW,246,0.0,0.0,91,0.00,,,0.00,,2013-03-10 01:11:00,
2013-03-09 20:21:00,30.0,28.0,30.32,WSW,246,0.0,0.0,91,0.00,,,0.00,,2013-03-10 01:21:00,
2013-03-09 20:32:00,30.0,28.0,30.32,WSW,246,0.0,0.0,91,0.00,,,0.00,,2013-03-10 01:32:00,
2013-03-09 20:42:00,30.0,28.0,30.32,WSW,246,0.0,0.0,91,0.00,,,0.00,,2013-03-10 01:42:00,
2013-03-09 20:52:00,30.0,28.0,30.32,WSW,246,0.0,0.0,92,0.00,,,0.00,,2013-03-10 01:52:00,
2013-03-09 21:01:00,30.0,28.0,30.32,WSW,246,0.0,0.0,91,0.00,,,0.00,,2013-03-10 02:01:00,
2013-03-09 21:11:00,30.0,28.0,30.32,WSW,246,0.0,0.0,91,0.00,,,0.00,,2013-03-10 02:11:00,
2013-03-09 21:22:00,30.0,28.0,30.32,WSW,246,0.0,0.0,93,0.00,,,0.00,,2013-03-10 02:22:00,
2013-03-09 21:32:00,30.0,28.0,30.33,WSW,246,0.0,0.0,93,0.00,,,0.00,,2013-03-10 02:32:00,
2013-03-09 21:42:00,30.0,28.0,30.33,WSW,246,0.0,0.0,93,0.00,,,0.00,,2013-03-10 02:42:00,
2013-03-09 21:52:00,29.0,27.0,30.34,WSW,246,0.0,0.0,93,0.00,,,0.00,,2013-03-10 02:52:00,
2013-03-09 22:02:00,29.0,27.0,30.35,WSW,248,0.0,0.0,93,0.00,,,0.00,,2013-03-10 03:02:00,
2013-03-09 22:12:00,29.0,27.0,30.35,WSW,248,0.0,0.0,93,0.00,,,0.00,,2013-03-10 03:12:00,
2013-03-09 22:22:00,30.0,28.0,30.35,North,358,0.0,0.0,94,0.00,,,0.00,,2013-03-10 03:22:00,
2013-03-09 22:32:00,30.0,28.0,30.34,North,359,0.0,0.0,93,0.00,,,0.00,,2013-03-10 03:32:00,
2013-03-09 22:42:00,30.0,28.0,30.34,North,359,0.0,0.0,93,0.00,,,0.00,,2013-03-10 03:42:00,
2013-03-09 22:52:00,29.0,27.0,30.33,North,358,0.0,0.0,93,0.00,,,0.00,,2013-03-10 03:52:00,
2013-03-09 23:01:00,29.0,27.0,30.33,North,358,0.0,0.0,93,0.00,,,0.00,,2013-03-10 04:01:00,
2013-03-09 23:11:00,29.0,27.0,30.33,North,358,0.0,0.0,93,0.00,,,0.00,,2013-03-10 04:11:00,
2013-03-09 23:22:00,29.0,27.0,30.33,North,359,0.0,0.0,93,0.00,,,0.00,,2013-03-10 04:22:00,
2013-03-09 23:32:00,29.0,27.0,30.34,North,359,0.0,0.0,94,0.00,,,0.00,,2013-03-10 04:32:00,
2013-03-09 23:42:00,29.0,27.0,30.34,North,359,0.0,0.0,94,0.00,,,0.00,,2013-03-10 04:42:00,
2013-03-09 23:52:00,29.0,27.0,30.34,NNW,336,0.0,0.0,94,0.00,,,0.00,,2013-03-10 04:52:00,